{"data":{"norad_id":49387,"epoch":"2026-05-25T04:30:21.465216Z","epoch_age_seconds":62285,"freshness":"FRESH","line1":"1 49387U 21100A   26145.18774844  .00002696  00000+0  12890-3 0  9991","line2":"2 49387  97.2653 192.9895 0008588  25.8004 334.3658 15.19791611252424","mean_motion":15.19791611,"eccentricity":0.0008588,"inclination_deg":97.2653,"raan_deg":192.9895,"arg_perigee_deg":25.8004,"mean_anomaly_deg":334.3658,"bstar":0.0001289,"rev_number":25242,"period_min":94.749832120241,"perigee_km":500.55737174853,"apogee_km":512.38237251211,"semimajor_km":6884.6068721303,"source":"CELESTRAK","updated_at":"2026-05-25T13:37:57.173341Z"}}